www.pogodaiklimat.ru

Погода и климат >> Архив погоды >> Швеция >> Аддеде


ПОГОДА в Аддеде

  • Прогноз погоды в Аддеде
  • Монитор погоды в Аддеде

АРХИВ ПОГОДЫ в Аддеде

Время (UTC), дата Ветер
(напр.,м/с)
 
Видим.   Явления Облачность Т
(С)
Тd
(С)
f
(%)
Тe
(С)
Тes
(С)
Комфортность P
(гПа)
Po
(гПа)
Тmin
(С)
Tmax
(С)
R
(мм)
R24
(мм)
S
(см)
19 11.09 В 3
{7}
50 км н/о +11.9 +10.2 89 +10 +10 999.0 935.0
20 11.09 Ю 2
{7}
50 км слаб. дождь н/о +11.1 +8.6 85 +10 +10 999.5 935.3 0.1
21 11.09 В 1
{4}
35 км в посл. час дождь н/о +9.7 +9.4 98 +9 +9 999.8 935.3
22 11.09 С 1
{3}
45 км {дождь} н/о +9.6 +9.3 98 +9 +9 999.7 935.2
23 11.09 З 2
{5}
8000 м слаб. дождь н/о +9.4 +9.4 100 +8 +8 1000.1 935.5 0.3
00 12.09 З 3
{7}
3700 м слаб. ливневой дождь н/о +9.0 +9.0 100 +6 +6 1000.7 936.0 1
01 12.09 З 2
{6}
23 км слаб. дождь н/о +8.7 +8.7 100 +7 +7 1001.1 936.3 0.1
02 12.09 З 3
{7}
26 км слаб. ливневой дождь н/о +8.1 +8.1 100 +5 +5 1001.4 936.5 0.1
03 12.09 З 4
{8}
45 км в посл. час дождь {ливн. осадки} н/о +8.0 +8.0 100 +4 +4 1001.7 936.7 0.0
04 12.09 З 4
{10}
18 км {ливн. осадки, дождь} н/о +7.8 +7.8 100 +4 +4 1001.8 936.8
05 12.09 З 2
{7}
28 км слаб. дождь н/о +7.8 +7.8 100 +6 +6 1002.2 937.1
06 12.09 З 3
{8}
21 км в посл. час дождь {ливн. осадки} н/о +7.7 +7.7 100 +5 +5 1002.4 937.3 +7.7 +12.2 0.1
07 12.09 З 4
{8}
25 км {дождь} н/о +8.1 +8.1 100 +5 +5 1002.8 937.7
08 12.09 З 3
{6}
21 км в посл. час дождь {ливн. осадки} н/о +8.2 +8.2 100 +5 +5 1003.2 938.0 0.1
09 12.09 З 4
{10}
30 км {ливн. осадки, дождь} н/о +9.1 +8.5 96 +6 +6 1003.4 938.5
10 12.09 З 4
{9}
30 км в посл. час дождь {ливн. осадки} н/о +9.8 +7.9 88 +7 +7 1003.3 938.7 0.0
11 12.09 З 4
{10}
29 км в посл. час дождь {ливн. осадки} н/о +9.1 +7.4 89 +6 +6 1004.1 939.2
12 12.09 З 4
{8}
35 км слаб. ливневой дождь н/о +9.7 +6.9 83 +7 +7 1004.0 939.3 0.0
13 12.09 З 4
{12}
40 км слаб. ливневой дождь н/о +8.8 +6.8 87 +6 +6 1004.6 939.7
14 12.09 З 4
{9}
50 км в посл. час дождь {ливн. осадки} н/о +9.5 +7.3 86 +7 +7 1004.3 939.4
15 12.09 З 4
{13}
20 км слаб. ливневой дождь н/о +7.9 +6.7 92 +4 +4 1005.0 939.8 0.0
16 12.09 З 4
{12}
19 км в посл. час дождь {ливн. осадки} н/о +7.7 +5.9 88 +4 +4 1004.9 939.6 0.1
17 12.09 З 5
{12}
20 км в посл. час дождь {ливн. осадки} н/о +7.2 +5.4 88 +3 +3 1005.2 939.8 0.0
18 12.09 З 3
{10}
13 км слаб. ливневой дождь н/о +6.4 +6.4 100 +3 +3 1005.6 939.9 +6.4 +10.5 0.2
19 12.09 З 3
{8}
16 км в посл. час дождь {ливн. осадки} н/о +6.1 +6.1 100 +3 +3 1005.7 940.0
20 12.09 З 3
{8}
18 км слаб. ливневой дождь н/о +6.1 +5.8 98 +3 +3 1005.8 940.1
21 12.09 З 5
{11}
15 км в посл. час дождь {ливн. осадки} н/о +5.4 +4.9 97 +1 +1 1005.9 940.0 0.1
22 12.09 З 3
{12}
50 км в посл. час дождь {ливн. осадки} н/о +5.2 +5.2 100 +1 +1 1006.0 940.0 0.2
23 12.09 З 4
{9}
30 км слаб. ливневой дождь н/о +5.1 +5.1 100 +1 +1 1006.0 940.0 0.1
00 13.09 З 2
{9}
45 км {ливн. осадки, дождь} н/о +4.9 +4.4 97 +2 +2 1006.4 940.3
01 13.09 З 3
{8}
10 км слаб. дождь н/о +4.6 +4.6 100 +1 +1 1006.4 940.2 0.1
02 13.09 З 4
{9}
15 км в посл. час дождь {ливн. осадки} н/о +4.0 +4.0 100 -1 -1 1006.2 939.9 0.5
03 13.09 З 4
{11}
14 км слаб. ливневой дождь н/о +4.4 +4.4 100 -0 -0 1005.7 939.6 0.1
04 13.09 З 4
{12}
14 км в посл. час дождь {ливн. осадки} н/о +4.1 +3.8 98 -1 -1 1005.6 939.4 0.0
05 13.09 З 3
{14}
16 км {ливн. осадки, дождь} н/о +4.2 +4.1 99 0 0 1005.9 939.7
06 13.09 З 3
{9}
16 км в посл. час дождь {ливн. осадки} н/о +4.7 +4.7 100 +1 +1 1006.1 940.0 +4.0 0.1
07 13.09 З 3
{12}
30 км слаб. ливневой дождь н/о +4.2 +4.2 100 0 0 1006.5 940.3 0.1
08 13.09 З 3
{8}
18 км слаб. ливневой дождь н/о +4.5 +4.5 100 +1 +1 1006.8 940.6 0.1
09 13.09 З 4
{7}
14 км в посл. час дождь {ливн. осадки} н/о +5.8 +5.0 95 +2 +2 1007.2 941.3
10 13.09 З 4
{9}
12 км {ливн. осадки, дождь} н/о +6.3 +5.1 92 +2 +2 1008.0 942.2
11 13.09 З 4
{10}
8000 м ливневой дождь н/о +6.5 +6.5 100 +3 +3 1008.8 943.0 0.6
12 13.09 З 4
{9}
7000 м слаб. дождь н/о +5.7 +5.7 100 +1 +1 1010.1 944.0 0.9
13 13.09 З 4
{10}
17 км ливневой дождь н/о +5.0 +5.0 100 +1 +1 1011.4 945.0 0.3
14 13.09 З 3
{10}
15 км в посл. час дождь {ливн. осадки} н/о +7.7 +7.1 96 +5 +5 1011.1 945.3 0.1
15 13.09 СЗ 2
{10}
19 км в посл. час дождь {ливн. осадки} н/о +4.9 +4.9 100 +2 +2 1012.5 946.0 0.3
16 13.09 СЗ 3
{7}
11 км слаб. ливневой дождь н/о +4.4 +4.4 100 +1 +1 1012.8 946.2 0.1
17 13.09 СЗ 2
{7}
20 км слаб. ливневой дождь н/о +3.7 +3.7 100 +1 +1 1013.3 946.5 0.2
18 13.09 СЗ 2
{7}
50 км в посл. час дождь {ливн. осадки} н/о +3.3 +3.3 100 0 0 1013.7 946.8 +3.1 +8.1 2
19 13.09 СЗ 3
{7}
50 км слаб. дождь н/о +3.5 +3.5 100 -1 -1 1013.8 946.8
20 13.09 З 2
{6}
22 км в посл. час дождь {ливн. осадки} н/о +3.6 +3.6 100 0 0 1013.5 946.7
21 13.09 З 3
{6}
20 км слаб. ливневой дождь н/о +3.7 +3.7 100 -0 -0 1013.7 946.9 0.0
22 13.09 З 2
{6}
28 км слаб. дождь н/о +3.6 +3.6 100 0 0 1013.8 947.0 0.1
23 13.09 З 2
{6}
50 км в посл. час дождь {ливн. осадки} н/о +3.2 +3.2 100 -0 -0 1013.8 946.8
00 14.09 З 2
{8}
18 км слаб. дождь н/о +3.4 +3.4 100 0 0 1013.8 946.9 0.1
01 14.09 З 3
{6}
45 км в посл. час дождь {ливн. осадки} н/о +3.6 +3.6 100 -1 -1 1013.9 947.0
02 14.09 З 3
{7}
45 км в посл. час дождь {ливн. осадки} н/о +3.4 +3.4 100 -1 -1 1014.0 947.1
03 14.09 З 2
{6}
30 км в посл. час дождь {ливн. осадки} н/о +3.0 +3.0 100 -0 -0 1014.0 946.9
04 14.09 З 2
{6}
12 км слаб. дождь н/о +3.2 +3.2 100 -0 -0 1013.7 946.7 0.2
05 14.09 З 2
{8}
45 км в посл. час дождь {ливн. осадки} н/о +3.1 +3.1 100 -0 -0 1013.8 946.7 0.3
06 14.09 З 4
{9}
45 км в посл. час дождь {ливн. осадки} н/о +3.4 +3.4 100 -2 -2 1014.2 947.2 +2.9 +3.7 0.1
07 14.09 З 3
{10}
45 км в посл. час дождь {ливн. осадки} н/о +3.3 +3.3 100 -1 -1 1014.3 947.3
08 14.09 З 4 11 км слаб. ливневой дождь н/о +4.1 +4.1 100 -1 -1 1013.9 947.2 0.1
09 14.09 СЗ 4
{11}
11 км слаб. ливневой дождь н/о +3.7 +3.7 100 -1 -1 1014.4 947.5 0.1
10 14.09 З 5
{13}
10 км слаб. ливневой дождь н/о +4.6 +4.6 100 -1 -1 1014.3 947.7 0.4
11 14.09 З 5
{11}
21 км в посл. час дождь {ливн. осадки} н/о +6.6 +3.9 83 +2 +2 1013.8 947.6 0.1
12 14.09 З 4 30 км {ливн. осадки, дождь} н/о +7.6 +3.9 77 +4 +4 1013.1 947.2
13 14.09 З 4
{11}
35 км н/о +8.0 +2.9 70 +5 +5 1012.8 947.0
14 14.09 З 4
{10}
40 км н/о +7.6 +2.3 69 +4 +4 1012.7 946.9
15 14.09 З 2
{7}
40 км н/о +6.9 +2.8 75 +5 +5 1012.0 946.0
16 14.09 ЮВ 1
{4}
35 км н/о +6.0 +2.7 79 +5 +5 1010.9 944.8
17 14.09 Ю 1
{2}
28 км слаб. дождь н/о +5.5 +3.4 86 +4 +4 1009.8 943.6
18 14.09 ЮВ 2
{4}
30 км в посл. час дождь {ливн. осадки} н/о +5.4 +2.6 82 +3 +3 1008.2 942.1 +3.3 +9.0 0.2
19 14.09 В 3
{7}
14 км {дождь} н/о +5.3 +2.8 84 +2 +2 1006.2 940.2
20 14.09 В 4
{8}
15 км {дождь} н/о +5.1 +2.7 84 +1 +1 1003.8 937.9
21 14.09 В 4
{8}
30 км слаб. дождь н/о +5.3 +2.5 82 +1 +1 1002.0 936.3
22 14.09 ЮВ 5
{11}
24 км слаб. дождь н/о +5.2 +3.2 87 +1 +1 999.7 934.1 0.1
23 14.09 В 4
{11}
45 км слаб. дождь н/о +4.7 +3.7 93 0 0 997.6 932.0 0.3
00 15.09 В 3
{8}
8000 м дождь н/о +4.6 +4.2 97 +1 +1 996.1 930.5 1
01 15.09 ЮВ 2
{6}
7000 м дождь н/о +4.3 +4.0 98 +1 +1 995.2 929.7 3
02 15.09 В 2
{3}
18 км слаб. ливневой дождь н/о +4.0 +3.9 99 +1 +1 994.0 928.5 1
03 15.09 В 2
{4}
40 км в посл. час дождь {ливн. осадки} н/о +4.4 +4.2 99 +1 +1 992.9 927.5 0.1
04 15.09 З 2
{5}
10 км слаб. ливневой дождь н/о +4.6 +4.6 100 +2 +2 992.0 926.8
05 15.09 СВ 1
{3}
23 км в посл. час дождь {ливн. осадки} н/о +4.5 +4.5 100 +3 +3 991.2 926.0
06 15.09 СВ 1
{4}
21 км {ливн. осадки, дождь} н/о +4.0 +4.0 100 +2 +2 990.4 925.2 +3.5 +5.4
07 15.09 ЮЗ 2
{5}
17 км н/о +6.1 +4.3 88 +4 +4 989.4 924.7
08 15.09 ЮЗ 1
{3}
16 км н/о +7.5 +3.7 77 +7 +7 988.5 924.2
09 15.09 Ю 1
{4}
50 км слаб. ливневой дождь н/о +6.9 +4.6 85 +6 +6 988.5 924.1
10 15.09 ЮВ 2
{4}
45 км в посл. час дождь {ливн. осадки} н/о +6.8 +4.6 86 +5 +5 988.4 924.0 0.1
11 15.09 Ю 3
{6}
8000 м слаб. дождь н/о +6.3 +5.8 97 +3 +3 988.7 924.1 0.6
12 15.09 ЮЗ 2
{6}
11 км дождь {ливн. осадки} н/о +4.9 +3.2 89 +2 +2 989.3 924.3 0.4
13 15.09 З 1
{3}
30 км слаб. дождь н/о +6.3 +5.5 95 +5 +5 988.7 924.2 1
14 15.09 З 1
{3}
30 км слаб. дождь н/о +6.0 +5.4 96 +5 +5 988.9 924.3 0.1
15 15.09 С 1
{3}
7000 м дождь н/о +5.3 +4.7 96 +4 +4 989.3 924.5 0.5
16 15.09 СВ 1
{3}
15 км слаб. дождь н/о +5.4 +4.5 94 +4 +4 989.2 924.4 0.9
17 15.09 ЮВ 1
{3}
8000 м морось {дождь} н/о +5.5 +5.5 100 +4 +4 989.5 924.7 0.3
18 15.09 В 1
{2}
30 км в посл. час дождь {морось} н/о +5.1 +5.1 100 +4 +4 990.1 925.2 +4.0 +8.2
19 15.09 В 2
{3}
24 км н/о +4.5 +4.5 100 +2 +2 990.6 925.5
20 15.09 В 1
{3}
30 км н/о +4.5 +4.5 100 +3 +3 991.3 926.1
21 15.09 В 2
{2}
45 км н/о +4.3 +4.3 100 +1 +1 991.9 926.6
22 15.09 В 1
{2}
50 км н/о +2.3 +2.3 100 0 0 993.2 927.4
23 15.09 В 1
{3}
50 км н/о +4.6 +4.6 100 +3 +3 993.5 928.2
00 16.09 штиль 0
{3}
14 км н/о +4.4 +4.4 100 +3 +3 994.3 928.9
01 16.09 В 2
{3}
18 км н/о +4.4 +4.4 100 +1 +1 994.9 929.5
02 16.09 В 2
{5}
15 км н/о +4.2 +4.2 100 +1 +1 995.7 930.1
03 16.09 В 2
{5}
12 км н/о +4.0 +4.0 100 +1 +1 996.2 930.6
04 16.09 В 2
{4}
17 км н/о +3.9 +3.9 100 +1 +1 996.7 931.0
05 16.09 В 2
{4}
24 км н/о +3.8 +3.8 100 +1 +1 997.2 931.4
06 16.09 ЮВ 3
{4}
14 км н/о +4.1 +4.1 100 0 0 997.5 931.8 +2.0 +5.1
07 16.09 ЮВ 3
{5}
18 км н/о +4.5 +4.5 100 +1 +1 997.9 932.3
08 16.09 ЮВ 2
{5}
13 км н/о +4.6 +4.6 100 +2 +2 998.4 932.8
09 16.09 ЮВ 2
{5}
21 км {дымка} н/о +5.5 +4.0 90 +3 +3 998.6 933.2
10 16.09 ЮВ 2
{6}
17 км слаб. дождь н/о +5.2 +4.5 95 +2 +2 999.0 933.5
11 16.09 В 3
{5}
19 км слаб. дождь н/о +5.1 +3.8 91 +2 +2 999.1 933.5 0.4
12 16.09 ЮВ 1 29 км слаб. дождь н/о +5.1 +4.6 97 +4 +4 999.5 933.9 1
13 16.09 Ю 1
{3}
10 км дождь н/о +4.9 +4.3 96 +3 +3 999.7 934.0 2
14 16.09 СЗ 1
{2}
12 км дождь н/о +5.2 +5.2 100 +4 +4 999.5 933.9 1
15 16.09 С 1
{2}
8000 м слаб. ливневой дождь н/о +5.3 +5.3 100 +4 +4 999.3 933.8 0.2
16 16.09 З 3
{6}
5000 м слаб. дождь н/о +5.3 +5.3 100 +2 +2 999.2 933.7 0.7
17 16.09 З 4
{9}
11 км слаб. ливневой дождь н/о +4.6 +4.6 100 0 0 999.3 933.6 0.3
18 16.09 З 3
{8}
21 км в посл. час дождь {ливн. осадки} н/о +4.4 +4.4 100 +1 +1 999.4 933.6 +4.1 +6.0
19 16.09 З 3
{7}
24 км слаб. ливневой дождь н/о +4.1 +4.1 100 0 0 999.5 933.6 1
20 16.09 З 3
{8}
6000 м слаб. дождь н/о +3.8 +3.8 100 -0 -0 999.6 933.7 0.2
21 16.09 З 4
{7}
16 км слаб. дождь н/о +3.6 +3.6 100 -1 -1 999.3 933.4 0.4
23 16.09 З 3
{8}
2200 м дождь {ливн. осадки} н/о +3.4 +3.4 100 -1 -1 999.5 933.5 2
00 17.09 З 3
{9}
17 км слаб. дождь н/о +2.7 +2.7 100 -2 -2 999.6 933.5 0.9
01 17.09 СЗ 3
{6}
15 км слаб. дождь н/о +2.5 +2.5 100 -2 -2 999.6 933.4 0.3
02 17.09 З 3
{8}
7000 м слаб. дождь н/о +2.6 +2.6 100 -2 -2 999.6 933.4 1
03 17.09 СЗ 2
{6}
1800 м слаб. дождь н/о +2.8 +2.8 100 -1 -1 999.7 933.5 0.9
04 17.09 З 1
{5}
2200 м слаб. дождь н/о +2.9 +2.9 100 +1 +1 1000.0 933.9 0.4
05 17.09 З 2
{3}
1900 м слаб. дождь н/о +2.8 +2.8 100 -1 -1 1000.3 934.1 0.3
06 17.09 З 1
{3}
1000 м слаб. ливневой дождь н/о +3.1 +3.1 100 +1 +1 1000.7 934.6 +2.5 +4.4 0.1
07 17.09 З 2
{3}
3700 м слаб. ливневой дождь н/о +3.6 +3.6 100 0 0 1001.1 935.0
08 17.09 СЗ 1
{3}
23 км слаб. ливневой дождь н/о +4.4 +4.4 100 +3 +3 1001.5 935.6 2
09 17.09 З 2 29 км в посл. час дождь {ливн. осадки} н/о +4.4 +4.4 100 +1 +1 1002.2 936.3
10 17.09 З 2
{3}
50 км в посл. час дождь {ливн. осадки} н/о +6.1 +6.1 100 +3 +3 1002.3 936.8
11 17.09 З 2
{4}
50 км {ливн. осадки, дождь} н/о +6.4 +4.6 88 +4 +4 1002.8 937.4
12 17.09 СЗ 2
{6}
50 км слаб. ливневой дождь н/о +5.9 +3.2 83 +4 +4 1003.4 937.8 0.2
13 17.09 З 2
{5}
45 км {дождь} н/о +7.9 +3.2 72 +6 +6 1003.2 938.0
14 17.09 З 2
{5}
50 км {дождь} н/о +6.4 +3.2 80 +4 +4 1004.0 938.5
15 17.09 З 3
{7}
50 км {дождь} н/о +7.5 +3.3 75 +5 +5 1004.2 938.9
16 17.09 З 2
{6}
22 км {дождь} н/о +5.5 +3.4 86 +3 +3 1005.3 939.5
17 17.09 З 2
{6}
13 км {дождь} н/о +4.5 +2.6 87 +2 +2 1006.1 940.0
18 17.09 СЗ 2
{5}
13 км {дождь} н/о +3.4 +3.4 100 0 0 1007.0 940.5 +3.1 +8.6
19 17.09 СЗ 2
{6}
18 км н/о +4.3 +3.7 96 +1 +1 1007.3 941.0
20 17.09 СЗ 2
{5}
16 км н/о +4.4 +4.4 100 +1 +1 1007.7 941.4
21 17.09 СЗ 2
{4}
19 км н/о +4.2 +4.2 100 +1 +1 1008.2 941.9
22 17.09 СЗ 2
{5}
28 км н/о +4.2 +4.2 100 +1 +1 1008.5 942.2
23 17.09 СЗ 2
{7}
28 км н/о +4.2 +4.2 100 +1 +1 1008.9 942.5
00 18.09 СЗ 2
{5}
30 км н/о +4.1 +4.1 100 +1 +1 1009.2 942.8
01 18.09 З 2
{5}
30 км н/о +3.9 +3.9 100 +1 +1 1009.5 943.0
02 18.09 СЗ 2
{4}
19 км слаб. дождь н/о +3.9 +3.9 100 +1 +1 1009.8 943.2
03 18.09 З 3
{6}
35 км в посл. час дождь {ливн. осадки} н/о +3.8 +3.8 100 -0 -0 1010.1 943.5
04 18.09 СЗ 3
{7}
30 км {ливн. осадки, дождь} н/о +3.9 +3.9 100 -0 -0 1010.3 943.7
05 18.09 З 2
{5}
30 км в посл. час дождь {ливн. осадки} н/о +3.6 +3.6 100 0 0 1010.9 944.2 0.2
06 18.09 З 2
{6}
40 км слаб. ливневой дождь н/о +3.9 +3.9 100 +1 +1 1011.0 944.4 +3.2 +4.6 0.1
07 18.09 З 3 21 км слаб. ливневой дождь н/о +4.2 +4.2 100 0 0 1011.2 944.7
08 18.09 З 3
{6}
27 км в посл. час дождь {ливн. осадки} н/о +4.9 +3.7 92 +1 +1 1011.5 945.0
09 18.09 З 3
{7}
29 км {ливн. осадки, дождь} н/о +5.9 +3.8 86 +3 +3 1011.4 945.3
10 18.09 З 2 30 км {ливн. осадки, дождь} н/о +5.6 +3.5 86 +3 +3 1011.7 945.4
11 18.09 З 3
{8}
14 км слаб. ливневой дождь н/о +5.7 +5.7 100 +2 +2 1011.8 945.5 0.7
12 18.09 З 3
{7}
24 км {ливн. осадки, дождь} н/о +6.6 +4.6 87 +3 +3 1011.9 945.8
13 18.09 З 3
{7}
22 км в посл. час дождь н/о +7.4 +5.1 85 +5 +5 1011.9 946.1 0.1
14 18.09 З 4
{9}
18 км {дождь} н/о +6.9 +4.2 83 +3 +3 1012.7 946.7
15 18.09 З 4
{9}
18 км {дождь} н/о +6.0 +3.7 85 +2 +2 1013.6 947.3
16 18.09 З 4
{9}
19 км в посл. час дождь н/о +5.4 +2.7 83 +1 +1 1014.6 948.1
17 18.09 СЗ 3
{9}
17 км {дождь} н/о +5.2 +2.9 85 +2 +2 1014.9 948.3
18 18.09 З 3
{10}
20 км {дождь} н/о +3.9 +2.4 90 0 0 1016.0 949.1 +3.8 +7.9
19 18.09 З 4
{10}
19 км н/о +3.7 +2.2 90 -1 -1 1016.5 949.5

 

Местоположение метеостанции Аддеде (Швеция): широта 64.50 долгота 14.22 высота над уровнем моря 555 м.

В архиве по умолчанию представлена погода в Аддеде за последнюю неделю. Архивные данные за месяц целиком и за предыдущие месяцы, начиная с января 2011 года, Вы можете получить, выбрав интересующий диапазон дат из раскрывающегося списка и нажав кнопку "Ввод!".


*Определитесь, кто Вы:
робот инопланетянин человек

Внимание! Время в таблицах - всемирное. Для получения местного времени необходимо прибавить поправку, которая равна 1 ч.

Смотрите также архив погоды в соседних городах и на ближайших метеорологических станциях:

Погода в Стекенйокке (Швеция) (68 км)
Погода в Намсскугане (Норвегия) (71 км)
Погода в Губбхогене (Швеция) (71 км)
Погода в Корсваттнете (Швеция) (82 км)
Погода в Маяватн (Норвегия) (85 км)
Погода в Гартлэнде (Норвегия) (88 км)
Погода в Снаса-Кжевя (Норвегия) (92 км)
Погода в Фоллинже (Швеция) (93 км)
Погода в Холлхасене (Швеция) (97 км)
Погода в Гиеласе (Швеция) (101 км)

Пояснения к столбцам:

Ветер - указаны скорость ветра в м/с - средняя за 10 мин, порывы в срок и между сроками (в фигурных скобках) и направление, откуда дует ветер: С - северный, СВ - северо-восточный, В - восточный, ЮВ - юго-восточный, Ю - южный, ЮЗ - юго-западный, З - западный, СЗ - северо-западный.
Видимость - горизонтальная дальность видимости в метрах или километрах. При видимости от 1 до 10 км при отсутствии осадков обычно наблюдается дымка, при ухудшении видимости до 1 км и менее - туман. В сухую погоду видимость может ухудшаться дымом, пылью или мглою.
Явления - указаны атмосферные явления, наблюдавшиеся в срок или в последний час перед сроком; фигурными скобками обозначены явления, наблюдавшиеся между сроками (за 1-3 часа до срока); квадратными скобками обозначены град или гололедные отложения с указанием их диаметра в мм.
Облачность - указаны через наклонную черту общая и нижняя облачность в баллах и высота нижней границы облаков в метрах; квадратными скобками обозначены формы облаков: Ci - перистые, Cs - перисто-слоистые, Cc - перисто-кучевые, Ac - высококучевые, As - высокослоистые, Sc - слоисто-кучевые, Ns - слоисто-дождевые, Cu - кучевые, Cb - кучево-дождевые. Подробнее классификацию облаков см. в Атласе облаков (PDF).
T - Температура воздуха - температура, измеренная на высоте 2 м над землей.
Td - Температура точки росы - температура, при понижении до которой содержащийся в воздухе водяной пар достигнет насыщения.
f - Относительная влажность воздуха - влажноcть воздуха, измеренная на высоте 2 м над землей.
Te - Эффективная температура - температура, которую ощущает одетый по сезону человек в тени. Характеристика душности погоды. При расчете учитывается влияние влажности воздуха и скорости ветра на теплоощущения человека.
Tes - Эффективная температура на солнце - температура, которую ощущает человек, с поправкой на солнечный нагрев. Характеристика знойности погоды. Зависит от высоты солнца над горизонтом, облачности и скорости ветра. Ночью, в пасмурную погоду, а также при ветре 12 м/с и более поправка равна нулю.
P - Атмосферное давление - приведенное к уровню моря атмосферное давление.
Po - Атмосферное давление - измеренное на уровне метеостанции атмосферное давление.
Tmin - Минимальная температура - минимум температуры воздуха на высоте 2 м над землей.
Tmax - Максимальная температура - максимум температуры воздуха на высоте 2 м над землей.
R - Количество осадков - Количество выпавших осадков за период времени, мм. При наведении курсора мыши на число - период времени, за который выпало указанное количество осадков.
R24 - Количество осадков - Количество выпавших осадков за 24 часа, мм.
S - Снежный покров - Высота снежного покрова, см. При наведении курсора мыши на число - состояние снежного покрова и степень покрытия местности в баллах.